Location: Gwatt
(46.7204°N, 7.6223°E)
Time: 05:45:48
(UTC+00:00)

Tiros 1 despin weight - Pass Details

Date: 22 January 2021
Orbit: 593 x 642 km, 48.2° (Epoch: 06 March)

Event Time Altitude Azimuth Distance (km) Brightness Sun altitude
Rises 19:45:34 0° 287° (WNW) 2,845 ? -35.2°
Reaches altitude 10° 19:47:56 10° 281° (W) 1,935 ? -35.6°
Enters shadow 19:49:03 17° 275° (W) 1,527 ? -35.8°
